Regional Weather Roundup
Issued by NWS

Home | Current Version | Previous Version | Text Only | Print | Product List | Glossary Off
Versions: 1 2 3 4 5 6 7 8 9 10 11 12 13 14 15 16 17 18 19 20 21 22 23 24 25 26 27 28

000
ASUS45 KCYS 170110
RWRWY

WYOMING REGIONAL WEATHER ROUNDUP
NATIONAL WEATHER SERVICE CHEYENNE WY
700 PM MDT WED AUG 16 2017

NOTE:  "FAIR" INDICATES FEW OR NO CLOUDS BELOW 12,000 FEET
WITH NO SIGNIFICANT WEATHER AND/OR OBSTRUCTIONS TO VISIBILITY.

WYZ001-170200-
YELLOWSTONE NATIONAL PARK

CITY           SKY/WX    TMP DP  RH WIND       PRES   REMARKS
LK YELLOWSTONE   N/A     65  26  23 VRB6      30.24F
W YELLOWSTONE  NOT AVBL

$$
WYZ002>013-054>058-071-098>099-170200-
NORTHERN WYOMING

CITY           SKY/WX    TMP DP  RH WIND       PRES   REMARKS
JACKSON        FAIR      72  34  24 W10       30.15S
CODY           FAIR      75  38  26 SW9       30.03
GREYBULL       PTSUNNY   84  29  13 SW5       29.93S
WORLAND        FAIR      78  39  24 N6        29.95F
SHERIDAN       FAIR      76  43  30 S7        29.95S
BUFFALO        FAIR      75  35  23 S8        30.03F
GILLETTE       FAIR      79  30  16 VRB3      29.99F
HULETT         FAIR      73  43  33 E8        30.02S
NEWCASTLE      FAIR      77  28  16 W3        30.03S

$$
WYZ014>020-022>026-101>103-170200-
CENTRAL WYOMING

CITY           SKY/WX    TMP DP  RH WIND       PRES   REMARKS
BIG PINEY      FAIR      70  39  32 W6        30.19S
PINEDALE       FAIR      70  32  24 CALM      30.19F
DUBOIS         FAIR      66  32  28 NW5       30.17F
LANDER           N/A    N/A N/A N/A MISG      30.04S
RIVERTON       FAIR      77  34  21 E3        30.05F
CASPER         FAIR      77  28  16 SW6       30.06F
DOUGLAS        FAIR      76  39  26 CALM      30.06F

$$
WYZ021-027>030-104>119-170200-
SOUTHERN WYOMING

CITY           SKY/WX    TMP DP  RH WIND       PRES   REMARKS
EVANSTON       PTSUNNY   72  34  24 SW10      30.22S
KEMMERER         N/A     72  30  21 NW13      30.22S
FORT BRIDGER   FAIR      72  34  24 W9        30.24R
ROCK SPRINGS   FAIR      73  26  17 W6        30.17F
RAWLINS        FAIR      68  39  34 S10       30.19S
SARATOGA       MOCLDY    63  43  48 NW7       30.22F
LARAMIE        PTSUNNY   66  33  29 N7        30.21R
CHEYENNE       CLOUDY    66  47  50 SW13      30.17R
TORRINGTON     FAIR      76  39  26 SE3       30.04S
PINE BLUFFS    FAIR      70  37  30 NE6       30.12R

$$




USA.gov is the U.S. government's official web portal to all federal, state and local government web resources and services.